Location: DARK SKY Beskydy - Park tmavé oblohy, www.darkskybeskydy.cz
(49.4926°N, 18.5016°E)
Time: 04:03:46
(UTC+01:00)

N. Korean satellite - Pass Details

Date: 10 December 2022
Orbit: 407 x 441 km, 97.3° (Epoch: 05 February)

Event Time Altitude Azimuth Distance (km) Brightness Sun altitude
Rises 17:16:00 0° 210° (SSW) 2,475 11.0 -13.7°
Reaches altitude 10° 17:18:48 10° 236° (SW) 1,616 10.5 -14.1°
Maximum altitude 17:20:44 14° 270° (W) 1,382 10.0 -14.4°
Drops below altitude 10° 17:22:42 10° 304° (NW) 1,632 9.7 -14.7°
Sets 17:25:34 0° 330° (NNW) 2,518 10.4 -15.2°
